Regional Weather Roundup
Issued by NWS Sioux Falls, SD

Home | Current Version | Previous Version | Graphics & Text | Print | Product List | Glossary Off
Versions: 1 2 3 4 5 6 7 8 9 10 11 12 13 14 15 16 17 18 19 20 21 22 23 24 25 26 27 28 29 30 31 32 33 34 35 36 37 38 39 40 41 42 43 44 45 46 47 48 49 50

000
ASUS43 KFSD 162310
RWRFSD

WEATHER ROUNDUP FOR SE SOUTH DAKOTA/SW MINNESOTA/NW IOWA
NATIONAL WEATHER SERVICE SIOUX FALLS SD
600 PM CDT WED APR 16 2014

NOTE: "FAIR" INDICATES FEW OR NO CLOUDS BELOW 12,000 FEET WITH NO
SIGNIFICANT WEATHER AND OR OBSTRUCTIONS TO VISIBILITY.


SDZ038>040-050-052>070-170000-
SOUTHEAST SOUTH DAKOTA

CITY           SKY/WX    TMP DP  RH WIND       PRES   REMARKS
CHAMBERLAIN      N/A     33  27  78 N24G30    30.07R WCI  20
HURON          CLOUDY    32  26  78 N17       30.06R WCI  21
MITCHELL       CLOUDY    35  26  69 N26G36    30.02R WCI  22
SIOUX FALLS    CLOUDY    32  28  85 N21G31    29.88R WCI  20
WINNER         CLOUDY    34  25  69 N21       30.07R WCI  22
YANKTON        CLOUDY    34  30  86 NW26G32   29.93R WCI  21
$$

MNZ071-072-080-081-089-090-097-098-170000-
SOUTHWEST MINNESOTA

CITY           SKY/WX    TMP DP  RH WIND       PRES   REMARKS
FAIRMONT       CLOUDY    41  36  81 N18G24    29.78R
JACKSON        LGT RAIN  39  36  87 N21       29.79R
LUVERNE        LGT SNOW  32  30  93 N21G26    29.85R VSB 3/4 WCI  20
MARSHALL       CLOUDY    28  25  86 N18       29.91R VSB 1   WCI  16
MONTEVIDEO     LGT SNOW  30  28  93 NE21G26   29.96R WCI  17
PIPESTONE        N/A    N/A N/A N/A NE23G30   29.86R
REDWOOD FALLS  SNOW      31  28  89 N15G25    29.89R VSB 1/2 WCI  20
TRACY          SNOW      31  29  95 N18G25    29.88R VSB 1/4 WCI  19
WINDOM         LGT RAIN  36  34  93 N18       29.81R
WORTHINGTON    CLOUDY    34  28  80 N18G26    29.81R WCI  23
$$

IAZ001>003-012>014-020>022-031-032-NEZ013-014-SDZ071-170000-
NORTHWEST IOWA

CITY           SKY/WX    TMP DP  RH WIND       PRES   REMARKS
CHEROKEE       DRIZZLE   44  40  86 W8        29.73R
DENISON        PTSUNNY   45  34  65 W22G33    29.76R
ESTHERVILLE    LGT RAIN  41  40  96 N22       29.76R FOG
LE MARS        CLOUDY    41  39  93 NW17G24   29.80R
ORANGE CITY    LGT RAIN  39  36  87 N15G25    29.79R
SHELDON        MIX PCPN  39  37  93 N21       29.77R
SIOUX CITY     LGT RAIN  39  36  89 NW28G37   29.83R
SPENCER        LGT RAIN  43  38  82 N18       29.74R
STORM LAKE     CLOUDY    46  37  71 NW16G25   29.72R
$$

ABBREVIATIONS USED IN REMARKS
   TC - TEMPERATURE IN CELSIUS
  WCI - WIND CHILL INDEX
   HX - HEAT INDEX
  VSB - VISIBILITY




USA.gov is the U.S. government's official web portal to all federal, state and local government web resources and services.